Location: Hylvaty SDH
(49.9612°N, 16.4057°E)
Time: 12:41:07
(UTC+01:00)

Tiros 1 - Pass Details

Date: 06 October 2020
Orbit: 630 x 663 km, 48.4° (Epoch: 28 October)

Event Time Altitude Azimuth Distance (km) Brightness Sun altitude
Rises 17:01:24 0° 279° (W) 2,959 11.6 11.6°
Reaches altitude 10° 17:03:46 10° 275° (W) 2,053 11.1 11.2°
Maximum altitude 17:08:22 52° 199° (SSW) 813 8.2 10.5°
Drops below altitude 10° 17:12:59 10° 124° (SE) 2,067 9.4 9.8°
Sets 17:15:23 0° 119° (ESE) 2,981 10.2 9.5°
